Probability
0 1 2 3 3 1 0 0 0 0 0 0 0 0 0 0 1 3 4 4 3 2 0 0 0 0 0 0 0 0 0 0 1 2 2 3 5 6 6 5 3 3 4
1 2 2 3 3 2 0 0 0 0 0 0 0 0 0 0 1 2 3 3 3 2 0 0 0 0 0 0 0 0 0 1 1 1 2 3 4 6 6 5 4 2 2
1 1 2 3 3 1 0 0 0 0 0 0 0 0 0 0 1 1 1 1 2 1 0 0 0 0 0 0 0 0 1 2 1 1 2 2 3 6 7 6 5 2 1
0 0 1 2 2 1 1 1 1 0 0 0 0 0 0 0 0 0 0 0 0 0 0 0 0 0 0 0 0 1 2 2 1 1 1 0 2 6 7 8 6 3 1
0 0 1 3 3 2 2 3 2 0 0 0 0 0 0 0 0 0 0 0 0 0 0 0 0 0 0 0 1 2 3 2 1 0 0 0 2 5 6 7 6 3 1
0 0 1 3 3 2 2 2 1 0 0 0 0 0 0 0 0 0 0 0 0 0 0 0 0 0 0 0 1 2 3 2 1 0 0 0 1 3 4 5 5 4 3
1 1 3 4 3 1 1 1 0 0 0 0 0 0 0 0 0 0 0 0 0 0 0 0 1 1 1 0 1 1 1 2 1 0 0 1 2 3 3 4 3 3 3
2 3 4 5 3 2 1 0 0 0 0 0 0 0 0 0 0 0 0 0 0 0 0 1 2 2 1 1 0 0 1 1 1 0 0 1 1 2 2 2 2 2 3
2 3 5 5 4 2 1 0 0 0 0 0 0 1 1 1 1 1 0 0 0 0 0 2 4 4 2 1 2 1 1 1 0 0 0 0 0 1 1 1 0 1 2
1 2 4 4 4 3 2 0 0 0 0 0 1 2 2 2 2 1 0 0 0 1 2 5 6 5 4 3 3 2 1 1 0 0 0 0 0 0 0 0 0 1 2
0 1 2 3 3 3 2 1 0 1 1 0 1 2 2 1 1 1 0 0 2 4 6 8 9 8 6 4 4 3 2 1 0 0 1 1 0 1 1 1 1 1 2
1 1 2 2 1 2 1 1 0 1 1 1 0 1 1 0 0 0 0 1 3 6 7 9 10 9 6 5 4 3 2 1 0 0 2 3 3 2 2 2 2 2 2
2 3 3 3 2 2 1 1 1 1 1 1 0 0 0 0 0 0 0 1 2 4 6 7 7 6 5 4 3 2 1 0 0 0 2 4 5 4 3 2 2 2 2
2 2 2 3 4 3 2 1 2 2 2 1 1 1 0 0 0 0 1 1 1 1 3 4 4 3 3 3 2 2 2 1 1 0 1 4 7 6 3 2 2 2 2
1 1 1 2 5 5 3 2 3 3 3 2 1 1 0 0 0 0 1 1 1 1 3 4 4 3 3 3 3 3 4 4 3 1 2 5 8 7 4 3 3 3 3
0 0 1 2 4 4 3 2 2 2 2 2 1 1 0 0 0 0 1 2 3 4 5 6 5 4 4 4 4 3 4 5 4 3 3 6 8 9 7 4 3 3 3
1 0 1 2 3 3 3 3 2 1 1 1 1 0 0 0 0 0 1 3 4 5 6 6 5 4 3 4 3 3 4 5 5 4 4 5 6 7 7 6 5 4 4
3 2 1 2 3 3 4 4 2 1 0 0 1 0 0 0 1 1 2 2 2 3 4 4 4 4 4 4 4 4 5 7 7 6 5 4 5 5 6 7 7 6 6
6 5 4 5 5 3 3 3 3 2 1 1 1 1 0 1 2 2 2 2 1 1 2 3 4 5 5 5 5 5 6 7 8 8 6 5 5 6 6 7 8 9 9
9 9 9 8 7 5 3 3 4 3 2 2 3 3 2 2 2 2 2 2 1 1 2 3 4 5 5 5 4 5 7 8 8 8 7 6 6 7 7 7 8 9 10
12 14 13 10 9 10 7 5 5 4 4 5 6 7 7 6 3 1 1 1 1 1 2 4 5 5 4 4 4 5 7 8 8 8 7 7 8 8 9 9 10 10 10
15 16 15 12 11 12 9 7 6 6 6 7 8 10 10 9 5 3 2 2 2 2 4 5 6 5 3 3 4 5 7 7 7 7 8 10 10 11 10 12 14 15 12
14 15 17 17 15 13 10 6 5 6 6 7 9 11 11 11 8 7 7 6 5 4 4 6 6 5 4 4 4 4 5 6 6 7 9 13 14 13 12 13 18 20 19
11 14 20 23 21 17 13 8 5 5 5 7 9 12 13 14 13 11 10 10 9 6 5 6 7 7 6 5 5 5 5 6 8 8 9 12 14 13 12 13 18 23 25
10 14 23 29 27 22 17 12 9 7 7 9 11 15 17 18 17 15 14 13 12 9 7 7 8 8 7 6 5 5 5 7 8 7 8 10 12 13 13 15 19 25 27
10 14 24 32 31 27 21 14 11 10 11 12 14 18 20 20 19 18 16 14 13 12 10 9 8 7 7 6 5 4 5 6 6 6 7 9 10 11 14 16 20 25 27
Wind_Speed
10 12 14 14 14 13 13 13 13 12 12 12 12 13 13 13 13 13 13 13 12 11 11 11 10 10 9 9 9 9 8 8 8 8 9 9 9 9 8 8 8 8 11
13 13 15 14 14 13 13 12 12 12 12 12 12 12 13 13 13 13 12 12 11 11 10 10 10 9 8 8 8 7 7 7 6 8 8 8 8 8 8 7 8 8 10
14 14 14 14 14 13 12 12 12 12 12 11 12 12 12 12 12 12 12 11 10 10 10 9 9 8 8 7 7 7 5 5 5 7 7 5 6 8 8 9 10 10 10
13 13 14 14 13 13 12 11 11 12 12 11 11 12 11 11 11 11 11 10 10 9 9 8 8 8 7 6 6 5 3 3 3 5 4 5 5 8 9 9 9 9 9
13 12 13 14 13 12 11 11 11 11 11 11 11 11 11 10 9 10 10 9 9 9 8 8 8 7 6 5 4 3 2 1 1 2 2 5 5 8 8 8 9 9 9
13 12 12 13 13 12 12 11 11 11 11 11 11 10 10 9 9 9 9 9 8 8 7 7 6 6 5 4 3 2 1 0 1 1 4 6 6 7 8 7 8 8 8
12 12 12 13 13 12 12 11 11 11 11 10 11 10 9 9 8 8 8 8 7 7 6 5 5 4 4 3 3 1 1 2 1 1 5 7 6 8 8 8 7 7 8
11 11 12 13 13 12 12 11 11 11 11 10 10 10 9 8 8 7 7 7 7 6 5 5 4 4 3 2 1 0 2 3 1 3 6 6 7 8 7 7 7 7 7
10 10 11 11 11 12 12 11 11 11 10 9 8 8 8 8 8 7 7 7 6 5 4 4 4 4 3 2 1 2 3 3 1 1 5 5 7 8 7 6 7 7 6
8 9 9 11 10 10 10 11 12 11 10 9 8 7 7 8 8 8 7 6 5 4 4 4 4 4 3 3 3 3 4 4 1 2 4 6 8 7 7 6 6 6 6
8 7 8 9 9 9 10 11 11 11 9 8 7 7 6 5 6 7 7 7 6 5 5 4 5 5 5 5 5 4 4 1 1 3 4 7 7 7 6 5 6 6 6
8 8 8 7 7 7 8 8 7 7 7 5 4 5 4 3 3 6 8 9 8 7 6 7 7 6 5 3 3 4 2 1 2 4 5 8 7 6 5 5 6 6 6
7 8 8 8 6 6 5 5 4 4 4 4 4 3 3 3 3 4 4 5 5 6 5 5 5 3 3 1 1 1 1 1 2 4 5 7 6 6 6 5 5 5 5
7 8 8 8 6 5 4 3 4 4 3 3 3 2 2 2 2 2 2 3 3 2 2 2 2 2 2 1 1 1 1 2 3 4 4 7 6 5 5 5 5 5 4
7 8 8 8 6 5 3 2 4 4 3 4 2 2 3 2 2 2 1 1 2 1 2 1 1 1 1 1 1 2 2 3 4 5 4 6 6 5 4 4 4 4 4
7 7 7 8 7 5 3 1 2 3 3 3 3 3 2 2 2 2 2 1 1 1 1 1 1 1 1 1 1 1 2 2 3 4 5 4 6 6 5 4 4 4 4
8 7 7 8 7 5 4 2 3 3 3 3 3 3 2 2 2 1 1 1 0 0 1 1 1 1 1 1 1 2 1 1 2 3 4 4 4 5 5 5 5 5 5
8 7 5 6 8 5 3 1 2 2 3 2 3 3 2 2 2 1 1 1 0 0 1 1 0 1 1 1 1 1 1 2 2 2 2 4 4 4 5 6 5 5 5
8 6 5 5 6 5 4 2 2 2 2 2 2 3 2 1 1 1 1 1 1 1 1 1 2 0 0 1 1 2 1 2 2 2 2 2 3 4 4 5 6 5 5
8 7 6 5 5 4 3 2 2 2 2 2 2 2 3 1 1 0 1 1 0 1 1 1 1 0 0 0 0 1 1 1 2 2 1 2 2 4 4 5 4 4 6
8 7 6 5 5 3 2 2 2 2 1 2 2 3 2 1 1 0 1 1 1 1 1 1 1 1 1 0 1 0 1 2 2 2 1 1 2 2 3 4 4 3 3
9 8 7 6 5 3 3 1 2 2 1 2 2 3 2 2 1 1 1 0 1 1 1 0 0 0 1 0 0 0 1 0 1 2 2 2 2 1 2 3 3 3 3
10 9 7 7 6 5 4 2 2 1 1 1 2 2 2 2 1 1 1 0 0 1 1 1 0 0 0 1 0 0 0 0 1 0 0 1 1 1 1 2 3 3 3
11 10 8 7 6 5 4 3 3 3 2 2 2 2 2 2 2 1 1 0 1 1 1 1 1 1 1 1 1 1 1 1 1 1 1 1 2 1 1 1 2 3 3
11 10 9 7 6 5 4 4 3 2 2 2 2 3 2 2 2 2 1 0 0 0 0 1 1 1 1 1 2 1 0 1 2 1 1 1 1 1 1 1 1 2 3
10 10 10 8 6 6 5 4 3 3 2 2 2 3 2 2 2 3 2 1 1 0 0 0 0 1 1 2 2 2 1 1 1 1 1 1 1 1 2 1 1 1 2
Wind_Direction
104 107 107 104 102 98 95 94 94 93 92 92 95 98 99 99 98 99 101 100 100 101 101 101 100 98 95 94 96 95 93 94 98 108 116 119 120 120 123 127 125 116 116
108 108 106 105 103 101 98 95 96 95 94 95 96 99 99 100 100 100 101 101 101 100 99 99 102 100 96 95 97 99 102 106 115 129 131 128 129 128 128 126 122 125 130
108 112 108 104 104 103 101 99 99 99 98 99 99 99 98 100 101 101 102 103 102 102 101 100 101 100 96 96 98 100 106 122 136 152 154 137 130 132 129 125 126 133 135
107 108 106 107 107 108 106 104 102 102 100 101 103 104 103 102 103 103 106 104 104 103 103 104 103 99 98 101 103 104 115 145 159 176 170 138 134 133 134 135 135 138 139
105 106 110 113 112 110 109 108 107 104 103 104 106 106 107 106 104 104 106 105 103 102 103 104 105 105 106 102 104 107 118 158 202 228 150 127 123 133 137 140 141 141 142
111 111 113 115 114 113 113 112 110 108 107 108 109 110 109 112 109 107 108 106 106 104 103 104 107 110 108 105 109 109 122 258 288 260 143 131 126 136 135 134 139 143 144
109 110 117 119 122 120 118 116 115 115 114 113 112 112 113 114 113 111 111 111 109 107 105 107 109 111 110 111 113 121 298 299 275 43 90 104 122 134 135 136 145 150 151
113 116 120 126 127 126 123 121 120 120 119 118 119 120 125 127 123 121 121 120 120 118 116 118 122 120 119 121 130 262 279 298 96 79 92 102 122 129 136 145 150 155 158
117 126 133 133 130 131 129 129 128 128 127 126 126 132 139 142 139 135 134 134 135 132 130 131 134 130 136 167 214 262 282 302 305 112 107 109 123 131 135 142 149 154 160
121 130 136 138 140 141 137 140 140 139 138 136 139 149 156 158 157 157 152 148 150 154 157 156 159 161 175 209 230 256 288 301 241 96 98 117 128 130 133 143 153 158 162
119 127 131 135 142 142 138 142 150 149 150 149 157 168 171 175 168 166 152 158 170 179 182 185 192 197 204 218 236 255 277 265 91 88 94 119 130 132 136 146 151 152 154
121 126 127 126 130 135 131 140 152 151 154 166 159 177 183 174 152 136 155 172 183 190 198 205 215 217 220 212 208 228 249 205 102 97 106 125 128 133 140 147 150 152 154
118 115 116 119 124 120 120 139 140 134 148 155 155 173 155 145 148 143 155 171 187 196 207 195 206 218 218 204 172 183 203 90 89 91 110 123 127 132 139 146 155 160 163
105 105 109 109 110 110 115 123 131 131 146 140 152 159 139 138 147 143 162 178 182 194 194 183 184 193 221 173 157 128 84 81 96 104 119 127 128 133 142 155 169 170 171
108 105 103 105 105 107 99 121 122 129 133 123 123 124 135 142 143 136 157 174 187 166 161 168 180 141 97 70 70 70 57 80 100 110 118 134 135 136 145 156 165 174 178
113 109 110 112 107 108 114 106 110 111 114 119 121 117 129 128 131 144 157 174 170 171 156 166 140 115 110 89 60 72 81 89 104 121 133 137 137 140 147 154 162 170 175
120 114 117 120 118 116 117 129 116 114 121 111 113 110 107 111 125 134 143 153 175 162 125 100 79 114 142 135 129 108 89 94 113 128 139 150 150 149 152 154 155 164 176
124 122 127 124 123 121 116 102 96 104 103 107 112 110 104 107 138 145 136 132 92 63 112 127 143 125 128 148 142 140 139 138 141 152 154 156 157 152 159 164 164 170 177
125 127 120 109 119 128 128 128 112 100 96 113 115 118 123 125 115 135 105 87 119 102 113 167 102 131 179 132 156 174 172 164 160 162 162 149 152 148 153 165 171 175 178
135 132 126 124 126 135 130 129 117 110 125 125 117 119 129 139 150 161 120 110 124 105 88 86 105 157 228 251 310 96 159 158 147 154 176 155 152 157 158 154 167 180 181
143 140 138 141 137 140 129 137 138 139 147 138 135 131 146 160 122 35 70 106 81 106 114 102 107 205 231 125 63 5 240 193 163 164 167 149 151 150 144 154 166 166 171
152 148 148 151 155 159 152 165 164 160 169 150 128 134 158 143 163 174 102 148 113 105 104 111 81 15 308 130 170 177 319 357 328 168 153 171 155 154 162 166 163 160 163
159 160 163 163 163 172 164 175 164 148 209 126 138 138 157 153 150 359 127 290 79 146 134 213 255 185 244 293 336 310 344 6 328 332 190 142 132 164 203 190 169 164 158
163 163 159 159 161 166 170 186 185 179 175 181 167 150 170 169 176 160 126 32 359 30 129 224 130 296 258 252 242 240 228 127 170 289 289 180 187 204 222 227 179 159 149
165 163 160 158 162 166 182 189 199 189 186 182 157 153 176 178 185 157 145 139 312 312 51 35 41 323 311 315 308 290 275 192 200 195 253 271 237 218 207 222 204 172 161
166 165 161 158 163 167 183 188 188 199 192 194 180 176 199 178 178 174 162 170 229 244 70 51 297 286 302 322 323 326 324 310 277 249 245 244 241 236 194 190 211 175 173